P/2007 T2 (Kowalski)

Epoch 2007 Sept. 17.0 TT = JDT 2454360.5  

T 2007 Sept. 19.02055 TT                                Nakano

q   0.6958578            (2000.0)            P               Q

n   0.18148993     Peri.  358.54197     +0.99898780     -0.04335278

a   3.0895913      Node     4.00229     +0.04281429     +0.83461424

e   0.7747735      Incl.    9.89706     +0.01379552     +0.54912622

P   5.43 (+/- 0.05 day)

From 123 observations 2007 Oct. 9-2008 Jan. 18, mean residual 0".79.

Residuals in seconds of arc 

2007/                     071102 G96  0.1+  0.0     071120 585 (1.2+  4.0-) 

071009 703  0.7-  0.1+    071102 G96  0.6+  0.3-    071120 585 (0.0   2.5-) 

071009 703  0.5-  0.1+    071103 850 (3.4+  1.0-)   071120 G96  1.2-  0.2+  

071009 703  0.9-  0.2+    071103 850  0.7+  0.3-    071127 213  1.0-  0.0   

071009 703  0.8-  0.5+    071104 G96  1.4-  1.7+    071127 213  1.8+  1.2-  

071010 585  0.7+  0.4-    071104 G96  1.0-  1.0+    071127 213 (4.1+  1.9-) 

071010 585  0.7+  0.1+    071104 G96  0.6+  0.7-    071201 213  1.0+  0.0   

071010 585  1.5+  0.4+    071105 850  0.8+  0.2-    071201 213  0.3+  0.7+  

071010 473  0.3-  0.1-    071105 850 (2.1+  1.7-)   071201 213 (1.0-  2.5+) 

071010 585  0.3-  0.3+    071105 850  0.4+  0.4-    071202 J47 (4.1-  3.3+) 

071010 473  0.8-  0.4-    071106 585  0.3-  1.0-    071202 J47 (4.6-  3.2+) 

071010 473  0.4-  0.0     071106 585  1.6+  1.7-    071202 J47 (4.4-  2.9+) 

071010 473  0.3-  0.0     071106 585  0.3+  1.0-    071204 J47  2.0+  0.5+  

071010 850  0.1+  0.7-    071106 585  1.6+  1.4-    071204 J47 (4.9-  4.9+) 

071010 850  0.5-  0.2-    071107 734  0.8+  0.5-    071204 J47 (3.8-  4.0+) 

071010 703  0.4-  0.5+    071107 734  0.4-  0.6+    071205 213 (3.0-  1.7+) 

071010 703  0.9-  0.3+    071107 734  0.4+  0.5-    071205 213  1.1+  1.0-  

071010 G96  0.7-  0.0     071107 734  0.2-  0.1+    071205 349  0.2-  0.3-  

071010 G96  1.6+  1.0-    071111 213  0.5-  0.0     071205 349  0.6+  0.0   

071010 G96  0.7-  0.0     071111 213  1.3-  0.6+    071205 349  0.1+  0.3+  

071010 G96  0.5-  0.2+    071111 213  1.4-  1.1+    071206 J47 (1.7-  4.7+) 

071011 204  0.3-  0.0     071112 J51  0.7+  1.0+    071206 J47 (0.7+  2.5+) 

071011 204  0.3-  0.2-    071112 J51 (2.7-  3.1+)   071206 J47 (0.9-  2.4+) 

071011 850  0.2-  0.9-    071113 473 (2.1+  1.8-)   071209 213  0.1-  0.0   

071011 850  0.3-  0.2-    071113 473 (2.1+  1.6-)   071209 213  0.3-  0.6+  

071011 850  1.9+  0.4-    071113 473 (0.5-  3.2-)   071209 213 (6.9-  5.7+) 

071011 734  0.5-  0.0     071114 J47  0.3-  1.9+    071214 B49  2.0-  1.0+  

071011 651  0.2+  0.3-    071114 J47 (2.6-  2.5+)   071215 J47  0.1-  0.3-  

071011 734  0.2-  0.1-    071114 J47 (2.3-  2.3+)   071215 J47  0.5+  0.2-  

071011 651  0.2-  0.5+    071114 J47 (2.7-  2.8+)   071215 J47  0.7+  0.8-  

071011 734  0.1-  0.2-    071114 J47 (2.7-  2.9+)   071216 J47 (4.8-  2.4+) 

071011 734  0.0   0.5-    071114 H06  1.4+  1.5-    071216 J47  1.0-  0.1-  

071015 850  0.1+  0.1-    071114 G96 (2.3-  2.1+)   071216 703 (3.8+  3.8-) 

071015 850  0.1-  0.1-    071114 G96  1.4-  1.5+    071216 703 (0.9+  2.4-) 

071015 G96 (3.8+  3.5-)   071114 G96  0.4-  0.6+    071216 703 (2.8+  2.2-) 

071015 G96 (4.2+  3.0-)   071114 H06  1.3+  1.8-    071216 703  1.3+  0.9-  

071015 G96 (4.1+  3.9-)   071115 J95  0.8-  0.4+    071219 213  1.3-  0.4+  

071015 G96 (3.9+  3.2-)   071115 J95  0.2-  0.5-    071219 213 (5.4-  3.1+) 

071017 585 (0.8-  3.0-)   071115 J95  1.0-  0.9+    071224 213 (2.9-  2.0+) 

071017 585  0.0   0.1-    071116 213  0.0   1.0+    071224 213 (5.7-  3.9+) 

071017 585  0.1-  0.7+    071116 213  0.2-  0.4+    071224 213 (9.9-  5.8+) 

071018 585  0.9+  1.3-    071116 213  0.4-  1.7+    071227 B49 (4.2+  0.3-) 

071018 585 (0.5+  2.6-)   071116 850 (4.6+  3.4-)   071231 213 (1.9+  2.6-) 

071018 585 (0.2-  2.1-)   071116 G96  0.3+  0.3-    071231 213 (1.2+  2.2-) 

071018 585  0.1-  1.0-    071116 G96  0.2+  0.3+    071231 349 (2.4-  2.0+) 

071018 585  0.2+  0.6-    071116 850  1.1+  1.0-    071231 349  1.7-  1.2+  

071019 G96  0.1+  0.7-    071116 G96  0.2-  0.4+    2008/                   

071019 G96  0.3+  0.7-    071116 G96  0.2+  0.3+    080110 215 (4.3-  2.9+) 

071019 G96  0.5+  0.5-    071117 232  1.3+  0.5-    080115 213  1.1+  0.2+  

071019 G96  0.0   1.0-    071117 232  1.3+  0.9-    080115 213  0.5+  0.2-  

071020 349  0.7+  0.4+    071117 J47  0.4-  0.6+    080116 G96 (2.9-  0.8-) 

071020 349  0.7+  0.4+    071117 232  0.4-  0.2-    080116 G96  1.6-  0.4-  

071020 349  0.8+  0.4+    071117 J47  0.1-  1.1+    080116 G96  1.1-  0.8-  

071021 703  0.4-  1.4+    071117 J47  0.4+  0.8+    080116 G96  1.6-  0.3+  

071021 703  0.8-  1.4+    071119 213  1.2+  0.9-    080118 G96  0.9+  0.5-  

071021 703  0.7-  1.8+    071119 213  1.1-  0.3+    080118 G96  0.4+  1.0-  

071021 703  0.6-  1.3+    071119 213 (2.8-  1.3+)   080118 G96 (2.2-  0.4-) 

071102 G96  0.4+  0.1-    071120 585 (2.0+  3.0-)   080118 G96  0.4+  1.2-  

071102 G96  0.1+  0.0     071120 585 (2.1+  2.5-)                           

NAKANO

         **** Don't distribute anyone except personal use only ****

                (C) Copyright 2008 OAA/ComputingSection

write mail from CFAD0::NAKANO on 2008-02-15 03:48:21(JST).

 



    P/2007 T2 (Kowalski)

T 2007 Sept. 19.02685 TT                                Nakano

q   0.6959154            (2000.0)            P               Q

n   0.18127895     Peri.  358.55774     +0.99897881     -0.04356302

a   3.0919880      Node     3.99850     +0.04298297     +0.83462197

e   0.7749295      Incl.    9.89530     +0.01392103     +0.54909784

P   5.44 (+/- 0.26 day)

From 94 observations 2007 Oct. 9-Nov. 20.



NAKANO

         **** Don't distribute anyone except personal use only ****

                (C) Copyright 2007 OAA/ComputingSection

write mail from CFAD0::NAKANO on 2007-11-30 09:05:11(JST).

 



◎P/2007 T2の軌道と予報位置



  上尾の門田健一氏から10月20日の観測が報告されました.氏のCCD全光度は,

17.3等でした.



    P/2007 T2 (Kowalski)

T 2007 Sept. 18.99719 TT                                Nakano

q   0.6957670            (2000.0)            P               Q

n   0.18265706     Peri.  358.51029     +0.99902280     -0.04255209

a   3.0764161      Node     3.98779     +0.04211973     +0.83468700

e   0.7738384      Incl.    9.89296     +0.01339285     +0.54907826

P   5.40 (+/- 3.11 days)

From 41 observations 2007 Oct. 9-20.

 

Date/        TT  R.A.(2000) Decl.     Delta   r     Daily motion  Mag.  Moon Age

              h    h  m       。  ,                      ,  / PA 。  m1      。

2007 Oct. 20 18  10 08.91  +24 58.1   0.598  0.892    11.0 /  43  17.4  164  .64

          21 18  10 09.47  +25 06.1   0.605  0.902    10.9 /  46  17.5  168  .74

          22 18  10 10.04  +25 13.7   0.613  0.913    10.8 /  48  17.5  160  .83

          23 18  10 10.63  +25 20.9   0.620  0.924    10.7 /  50  17.6  147  .91

          24 18  10 11.24  +25 27.7   0.627  0.935    10.5 /  52  17.7  133  .97

          25 18  10 11.85  +25 34.2   0.634  0.946    10.4 /  53  17.8  118 1.00

          26 18  10 12.47  +25 40.5   0.640  0.957    10.3 /  54  17.8  104  .99

          27 18  10 13.08  +25 46.5   0.647  0.968    10.2 /  55  17.9   89  .96

          28 18  10 13.70  +25 52.4   0.653  0.979    10.0 /  55  18.0   74  .90

          29 18  10 14.31  +25 58.1   0.659  0.990     9.8 /  55  18.1   60  .82

          30 18  10 14.91  +26 03.6   0.665  1.002     9.7 /  55  18.1   47  .72

          31 18  10 15.50  +26 09.1   0.670  1.013     9.5 /  55  18.2   34  .62

     Nov.  1 18  10 16.08  +26 14.5   0.676  1.025     9.3 /  54  18.3   22  .51

           2 18  10 16.64  +26 19.9   0.681  1.036     9.0 /  53  18.3   15  .41

           3 18  10 17.18  +26 25.3   0.686  1.048     8.8 /  52  18.4   16  .31

           4 18  10 17.69  +26 30.7   0.691  1.060     8.6 /  51  18.4   24  .23

           5 18  10 18.19  +26 36.2   0.696  1.071     8.3 /  49  18.5   34  .15

           6 18  10 18.66  +26 41.6   0.700  1.083     8.1 /  47  18.6   45  .09

           7 18  10 19.10  +26 47.2   0.705  1.095     7.9 /  44  18.6   57  .04

           8 18  10 19.51  +26 52.9   0.709  1.107     7.7 /  41  18.7   68  .01

           9 18  10 19.88  +26 58.6   0.713  1.119     7.5 /  38  18.8   79  .00

          10 18  10 20.23  +27 04.5   0.717  1.131     7.3 /  35  18.8   91  .01

          11 18  10 20.54  +27 10.5   0.720  1.143     7.1 /  31  18.9  102  .03

          12 18  10 20.81  +27 16.6   0.724  1.154     7.0 /  26  18.9  114  .07

          13 18  10 21.04  +27 22.9   0.727  1.166     7.0 /  22  19.0  125  .13

          14 18  10 21.24  +27 29.4   0.730  1.178     6.9 /  17  19.0  137  .20

          15 18  10 21.39  +27 36.0   0.734  1.190     7.0 /  12  19.1  148  .28

          16 18  10 21.50  +27 42.9   0.737  1.202     7.1 /   7  19.1  158  .38

          17 18  10 21.57  +27 49.9   0.739  1.214     7.2 /   2  19.2  164  .48

          18 18  10 21.59  +27 57.1   0.742  1.226     7.4 / 357  19.2  161  .59

          19 18  10 21.56  +28 04.5   0.745  1.238     7.7 / 353  19.3  151  .69

          20 18  10 21.49  +28 12.1   0.747  1.250     8.0 / 348  19.3  139  .79

          21 18  10 21.36  +28 19.9   0.750  1.262     8.3 / 344  19.4  125  .88

          22 18  10 21.19  +28 28.0   0.752  1.274     8.8 / 340  19.4  111  .95

          23 18  10 20.97  +28 36.2   0.754  1.286     9.2 / 337  19.5   96  .99

          24 18  10 20.69  +28 44.7   0.756  1.298     9.7 / 333  19.5   81 1.00

          25 18  10 20.36  +28 53.3   0.758  1.310    10.2 / 330  19.6   67  .98

          26 18  10 19.98  +29 02.2   0.760  1.322    10.8 / 328  19.6   53  .93

          27 18  10 19.54  +29 11.4   0.762  1.334    11.4 / 325  19.7   39  .86

          28 18  10 19.04  +29 20.7   0.764  1.346    12.0 / 323  19.7   27  .78

          29 18  10 18.49  +29 30.2   0.765  1.358    12.6 / 321  19.7   19  .68

          30 18  10 17.87  +29 40.0   0.767  1.370    13.3 / 319  19.8   18  .58

     Dec.  1 18  10 17.20  +29 50.0   0.769  1.381    14.0 / 317  19.8   25  .48

NAKANO

         **** Don't distribute anyone except personal use only ****

                (C) Copyright 2007 OAA/ComputingSection

write mail from CFAD0::NAKANO on 2007-10-22 07:33:54(JST).

 



    P/2007 T2 (Kowalski)

T 2007 Sept. 18.99822 TT                                Nakano

q   0.6922127            (2000.0)            P               Q

n   0.16614042     Peri.  358.43553     +0.99894378     -0.04419581

a   3.2770710      Node     4.16046     +0.04381526     +0.83380022

e   0.7887709      Incl.    9.97876     +0.01383979     +0.55029440

P   5.93 (+/-100.9 days)

From 31 observations 2007 Oct. 9-11.



NAKANO

         **** Don't distribute anyone except personal use only ****

                (C) Copyright 2007 OAA/ComputingSection

write mail from CFAD0::NAKANO on 2007-10-18 07:23:28(JST).

 



戻ります。